Overview Statistics Trail Chart Weather Telemetry Raw packets
 

This is the latest recevied weather packets stored in our database for station/object K4WCH. If no packets are shown the sender has not sent any weather packets the latest 10 day(s).

<< 74 75 76 77 78 79 80 >>
Time Temp. Humidity Pressure Rain* Wind** Luminosity Snow
1788131551 27.22° C 88% 1017.1 hPa 0 mm - 26 W/m² -
1788131246 27.78° C 88% 1017 hPa 0 mm - 31 W/m² -
1788130941 27.78° C 86% 1017.1 hPa 0 mm - 37 W/m² -
1788130640 27.78° C 87% 1017.2 hPa 0 mm - 41 W/m² -
1788130335 27.78° C 86% 1016.9 hPa 0 mm - 43 W/m² -
1788130034 27.78° C 86% 1017 hPa 0 mm - 47 W/m² -
1788129730 27.78° C 85% 1017 hPa 0 mm - 54 W/m² -
1788129427 27.78° C 85% 1016.9 hPa 0 mm - 62 W/m² -
1788129122 27.78° C 85% 1017.1 hPa 0 mm - 72 W/m² -
1788128816 28.33° C 85% 1017.2 hPa 0 mm - 83 W/m² -
1788128512 28.33° C 86% 1017 hPa 0 mm - 86 W/m² -
1788128208 28.33° C 85% 1017.1 hPa 0 mm - 90 W/m² -
1788127904 28.33° C 84% 1016.9 hPa 0 mm - 96 W/m² -
1788127599 28.33° C 84% 1016.8 hPa 0 mm - 99 W/m² -
1788127298 28.33° C 84% 1016.8 hPa 0 mm - 104 W/m² -
1788126997 28.33° C 84% 1016.9 hPa 0 mm - 111 W/m² -
1788126691 28.33° C 84% 1016.6 hPa 0 mm - 120 W/m² -
1788126387 27.78° C 85% 1016.6 hPa 0 mm - 135 W/m² -
1788126081 27.78° C 84% 1016.4 hPa 0 mm - 146 W/m² -
1788125780 27.78° C 84% 1016.6 hPa 0 mm - 158 W/m² -
1788125476 27.78° C 84% 1016.4 hPa 0 mm - 179 W/m² -
1788125172 27.78° C 84% 1016.4 hPa 0 mm - 194 W/m² -
1788124867 27.78° C 85% 1016.5 hPa 0 mm - 199 W/m² -
1788124562 27.78° C 85% 1016.8 hPa 0 mm - 202 W/m² -
1788124261 27.78° C 87% 1016.8 hPa 0 mm - 203 W/m² -

* Rain latest hour (hover to see other rain measurements)
** Current wind speed in m/s (hover to see current wind gust speed)